User: anonymous   Login
Location: Oshawa
(43.9000°N, 78.8670°W)
Time: 09:47:59
(UTC-04:00)
Language:

ITAMSAT 1 - Orbit

View from above orbital plane
View from above orbital plane
View from above satellite
View from above satellite

Ground track
Ground track

The orbit data is extracted from the following two-line orbital elements,

1 22826U 93061D   15145.86259239  .00000070  00000-0  44330-4 0  9994
2 22826 098.7013 096.1380 0009235 013.5420 346.6008 14.30196714129893
Epoch (UTC): 25 May 2015 20:42:07
Eccentricity: 0.0009235
inclination: 98.7013°
perigee height: 784 km
apogee height: 797 km
right ascension of ascending node: 96.1380°
argument of perigee: 13.5420°
revolutions per day: 14.30196714
mean anomaly at epoch: 346.6008°
orbit number at epoch: 12989

The dashed part of the orbit path shows where the satellite is in the earth's shadow,  

DLR